Weather History for New Bedford, MA

Change the Weather History Date:

Saturday, August 17, 2013

  Actual Average Record
Temperature  
Mean Temperature 66 °F -  
Max Temperature 82 °F 81 °F 93 °F (2002)
Min Temperature 53 °F 66 °F 53 °F (2013)
Cooling Degree Days 2    
Growing Degree Days 16 (Base 50)    
Moisture  
Dew Point 57 °F    
Average Humidity 85    
Maximum Humidity 100    
Minimum Humidity 44    
Precipitation  
Precipitation 0.00 in - - ()
Sea Level Pressure  
Sea Level Pressure 30.22 in    
Wind  
Wind Speed 1 mph (East)    
Max Wind Speed 6 mph    
Max Gust Speed -    
Visibility 6 miles    
Events Fog    
Averages and records for this station are not official NWS values.
T = Trace of Precipitation, MM = Missing Value Source: NWS Daily Summary

Daily Weather History Graph

Daily Weather History Graph

Search for Another Location

Airport:

Trip Planner

Search our weather history database for the weather conditions in past years. The results will help you decide how hot, cold, wet, or windy it might be!

Date:

Astronomy

Aug. 17, 2013 Rise Set
Actual Time 5:54 AM EDT 7:40 PM EDT
Civil Twilight 5:24 AM EDT 8:09 PM EDT
Nautical Twilight 4:48 AM EDT 8:45 PM EDT
Astronomical Twilight 4:09 AM EDT 9:24 PM EDT
Moon 4:54 PM EDT (8/17) 1:52 AM EDT (8/17)
Length of Visible Light 14h 45m
Length of Day
13h 45m
Waxing Gibbous, 84% of the Moon is Illuminated
Aug 17
Waxing Gibbous
Aug 20
Full
Aug 28
Last Quarter
Sep 5
New
Sep 12
First Quarter

Hourly Weather History & Observations

Time (EDT) Temp. Heat Index Dew Point Humidity Pressure Visibility Wind Dir Wind Speed Gust Speed Precip Events Conditions
12:53 AM 60.1 °F - 57.9 °F 93% 30.21 in 9.0 mi Calm Calm - N/A   Clear
1:53 AM 57.9 °F - 57.0 °F 97% 30.21 in 9.0 mi Calm Calm - N/A   Clear
2:02 AM 57.2 °F - 57.2 °F 100% 30.20 in 1.8 mi Calm Calm - N/A   Clear
2:06 AM 57.2 °F - 55.4 °F 94% 30.20 in 0.5 mi Calm Calm - N/A Fog Fog
2:15 AM 57.2 °F - 57.2 °F 100% 30.20 in 1.2 mi Calm Calm - N/A   Clear
2:18 AM 57.2 °F - 57.2 °F 100% 30.21 in 3.0 mi Calm Calm - N/A   Clear
2:53 AM 57.9 °F - 57.9 °F 100% 30.21 in 7.0 mi Calm Calm - N/A   Clear
3:24 AM 55.4 °F - 53.6 °F 94% 30.20 in 1.8 mi Calm Calm - N/A   Clear
3:33 AM 55.4 °F - 55.4 °F 100% 30.20 in 0.5 mi Calm Calm - N/A Fog Fog
3:40 AM 55.4 °F - 55.4 °F 100% 30.20 in 2.0 mi Calm Calm - N/A   Clear
3:48 AM 57.2 °F - 55.4 °F 94% 30.20 in 9.0 mi Calm Calm - N/A   Clear
3:53 AM 55.9 °F - 55.0 °F 97% 30.20 in 7.0 mi Calm Calm - N/A   Clear
4:16 AM 55.4 °F - 55.4 °F 100% 30.20 in 1.5 mi Calm Calm - N/A   Clear
4:22 AM 55.4 °F - 55.4 °F 100% 30.21 in 0.2 mi Calm Calm - N/A Fog Fog
4:34 AM 55.4 °F - 53.6 °F 94% 30.20 in 0.8 mi Calm Calm - N/A   Clear
4:43 AM 55.4 °F - 55.4 °F 100% 30.20 in 2.0 mi Calm Calm - N/A   Clear
4:50 AM 55.4 °F - 55.4 °F 100% 30.20 in 8.0 mi Calm Calm - N/A   Clear
4:53 AM 55.0 °F - 55.0 °F 100% 30.20 in 8.0 mi Calm Calm - N/A   Clear
5:02 AM 53.6 °F - 53.6 °F 100% 30.21 in 1.8 mi Calm Calm - N/A   Partly Cloudy
5:10 AM 53.6 °F - 53.6 °F 100% 30.21 in 2.0 mi Calm Calm - N/A   Partly Cloudy
5:17 AM 53.6 °F - 53.6 °F 100% 30.21 in 10.0 mi Calm Calm - N/A   Clear
5:39 AM 53.6 °F - 53.6 °F 100% 30.21 in 1.5 mi Calm Calm - N/A   Clear
5:50 AM 55.4 °F - 53.6 °F 94% 30.22 in 4.0 mi Calm Calm - N/A   Clear
5:53 AM 55.0 °F - 54.0 °F 96% 30.22 in 7.0 mi Calm Calm - N/A   Clear
6:53 AM 55.9 °F - 55.0 °F 97% 30.23 in 10.0 mi Calm Calm - N/A   Clear
7:53 AM 66.0 °F - 59.0 °F 78% 30.24 in 10.0 mi Calm Calm - N/A   Clear
8:53 AM 71.1 °F - 57.9 °F 63% 30.25 in 10.0 mi North 3.5 mph - N/A   Clear
9:53 AM 75.9 °F - 57.9 °F 54% 30.25 in 10.0 mi Calm Calm - N/A   Clear
10:53 AM 79.0 °F - 55.0 °F 44% 30.25 in 10.0 mi NNE 3.5 mph - N/A   Clear
11:53 AM 78.1 °F - 55.9 °F 46% 30.25 in 10.0 mi NNE 3.5 mph - N/A   Clear
12:53 PM 79.0 °F - 55.9 °F 45% 30.24 in 10.0 mi East 5.8 mph - N/A   Partly Cloudy
1:53 PM 77.0 °F - 59.0 °F 54% 30.24 in 10.0 mi East 4.6 mph - N/A   Scattered Clouds
2:53 PM 80.1 °F 80.9 °F 60.1 °F 50% 30.23 in 10.0 mi SSW 5.8 mph - N/A   Overcast
3:53 PM 78.1 °F - 57.0 °F 48% 30.23 in 10.0 mi ESE 5.8 mph - N/A   Mostly Cloudy
4:53 PM 78.1 °F - 57.0 °F 48% 30.23 in 10.0 mi ESE 4.6 mph - N/A   Partly Cloudy
5:53 PM 77.0 °F - 60.1 °F 56% 30.24 in 10.0 mi SE 5.8 mph - N/A   Clear
6:53 PM 73.0 °F - 60.1 °F 64% 30.25 in 10.0 mi ESE 4.6 mph - N/A   Clear
7:53 PM 66.9 °F - 60.1 °F 79% 30.25 in 10.0 mi Calm Calm - N/A   Clear
8:53 PM 64.9 °F - 61.0 °F 87% 30.27 in 10.0 mi Calm Calm - N/A   Clear
9:53 PM 62.1 °F - 61.0 °F 96% 30.27 in 9.0 mi Calm Calm - N/A   Clear
10:53 PM 60.1 °F - 59.0 °F 96% 30.28 in 4.0 mi Calm Calm - N/A   Clear
11:53 PM 60.1 °F - 57.9 °F 93% 30.28 in 6.0 mi Calm Calm - N/A   Clear